TimeEDT,TemperatureF,Dew PointF,Humidity,Sea Level PressureIn,VisibilityMPH,Wind Direction,Wind SpeedMPH,Gust SpeedMPH,PrecipitationIn,Events,Conditions,WindDirDegrees,DateUTC
12:54 AM,69.1,66.9,93,30.12,9.0,Calm,Calm,-,N/A,,Clear,0,2012-10-04 04:54:00
1:54 AM,69.1,66.9,93,30.13,8.0,Calm,Calm,-,N/A,,Clear,0,2012-10-04 05:54:00
2:54 AM,70.0,68.0,93,30.12,10.0,Calm,Calm,-,0.00,,Clear,0,2012-10-04 06:54:00
3:54 AM,70.0,68.0,93,30.11,10.0,Calm,Calm,-,0.00,Rain,Light Rain,0,2012-10-04 07:54:00
4:54 AM,70.0,68.0,93,30.11,7.0,Calm,Calm,-,0.00,,Mostly Cloudy,0,2012-10-04 08:54:00
5:54 AM,69.1,68.0,96,30.12,6.0,Calm,Calm,-,N/A,,Mostly Cloudy,0,2012-10-04 09:54:00
6:54 AM,69.1,66.9,93,30.12,7.0,ESE,3.5,-,N/A,,Mostly Cloudy,110,2012-10-04 10:54:00
7:41 AM,69.8,68.0,94,30.13,6.0,Calm,Calm,-,N/A,,Mostly Cloudy,0,2012-10-04 11:41:00
7:54 AM,70.0,68.0,93,30.12,7.0,Calm,Calm,-,N/A,,Overcast,0,2012-10-04 11:54:00
8:20 AM,71.6,68.0,88,30.14,6.0,North,4.6,-,N/A,,Overcast,360,2012-10-04 12:20:00
8:54 AM,72.0,69.1,91,30.13,5.0,East,4.6,-,N/A,,Overcast,80,2012-10-04 12:54:00
9:22 AM,73.4,68.0,83,30.14,6.0,East,4.6,-,N/A,,Haze,90,2012-10-04 13:22:00
9:31 AM,73.4,68.0,83,30.13,6.0,East,5.8,-,N/A,,Haze,90,2012-10-04 13:31:00
9:54 AM,73.9,69.1,85,30.14,7.0,SE,4.6,-,N/A,,Scattered Clouds,140,2012-10-04 13:54:00
10:54 AM,75.0,70.0,84,30.11,8.0,ESE,8.1,-,0.00,Rain,Light Rain,120,2012-10-04 14:54:00
11:43 AM,75.2,69.8,83,30.12,7.0,Calm,Calm,-,0.00,,Scattered Clouds,0,2012-10-04 15:43:00
11:54 AM,75.9,70.0,82,30.12,7.0,Calm,Calm,-,0.00,,Scattered Clouds,0,2012-10-04 15:54:00
12:09 PM,77.0,71.6,83,30.12,7.0,Variable,4.6,-,N/A,,Mostly Cloudy,0,2012-10-04 16:09:00
12:54 PM,77.0,71.1,82,30.10,6.0,SSE,3.5,-,N/A,,Haze,150,2012-10-04 16:54:00
1:23 PM,78.8,71.6,78,30.08,6.0,Variable,3.5,-,N/A,,Haze,0,2012-10-04 17:23:00
1:54 PM,77.0,72.0,84,30.08,5.0,Calm,Calm,-,N/A,,Haze,0,2012-10-04 17:54:00
2:54 PM,78.1,71.1,79,30.08,6.0,West,3.5,-,N/A,,Haze,260,2012-10-04 18:54:00
3:54 PM,77.0,71.1,82,30.05,5.0,Calm,Calm,-,N/A,,Haze,0,2012-10-04 19:54:00
4:54 PM,78.1,69.1,74,30.06,9.0,West,5.8,-,0.00,,Partly Cloudy,280,2012-10-04 20:54:00
5:54 PM,75.9,69.1,79,30.06,10.0,WSW,3.5,-,N/A,,Clear,250,2012-10-04 21:54:00
6:54 PM,70.0,68.0,93,30.06,5.0,Calm,Calm,-,N/A,,Clear,0,2012-10-04 22:54:00
7:54 PM,70.0,68.0,93,30.07,5.0,West,5.8,-,N/A,,Partly Cloudy,280,2012-10-04 23:54:00
8:54 PM,70.0,66.0,87,30.08,7.0,WNW,4.6,-,N/A,,Clear,300,2012-10-05 00:54:00
9:54 PM,64.9,64.0,97,30.09,5.0,West,3.5,-,N/A,,Clear,280,2012-10-05 01:54:00
10:54 PM,63.0,62.1,97,30.09,5.0,West,3.5,-,N/A,,Clear,270,2012-10-05 02:54:00
11:54 PM,61.0,61.0,100,30.09,5.0,West,4.6,-,N/A,,Clear,270,2012-10-05 03:54:00